Weather Service Report


190 
ASUS46 KPQR 310410
RWROR 

OREGON REGIONAL WEATHER ROUNDUP
NATIONAL WEATHER SERVICE PORTLAND OR
900 PM PDT TUE AUG 30 2016

NOTE: "FAIR" INDICATES FEW OR NO CLOUDS BELOW 12,000 FEET WITH
NO SIGNIFICANT WEATHER AND/OR OBSTRUCTIONS TO VISIBILITY.

ORZ001>013-310500-
NORTHWEST OREGON

  
CITY           SKY/WX    TMP DP  RH WIND       PRES   REMARKS
ASTORIA        CLOUDY    64  54  69 SW9       29.98R                  
NEWPORT        PTCLDY    59  55  88 S3        30.05R                  
PORTLAND       PTCLDY    66  53  63 E10       29.99R                  
VANCOUVER WA   PTCLDY    67  55  65 E6        29.98R                  
SCAPPOOSE      MOCLDY    61  53  75 W3        29.98R                  
HILLSBORO      CLEAR     67  54  63 S7        29.98R                  
AURORA         CLEAR     65  53  65 SW5       30.00R                  
MCMINNVILLE    CLEAR     63  51  65 SW6       30.00R                  
SALEM          CLEAR     64  52  64 SW5       29.99R                  
CORVALLIS        N/A     61  50  67 SW5       30.03R                  
EUGENE         PTCLDY    63  49  60 W6        30.02R                  
$$

ORZ021-028-310500-
SOUTHWEST OREGON

  
CITY           SKY/WX    TMP DP  RH WIND       PRES   REMARKS
NORTH BEND     CLEAR     61  57  88 S3        30.05R                  
BROOKINGS      CLEAR     58  54  86 CALM      30.04                   
ROSEBURG       CLEAR     69  50  50 NE3       30.01R                  
SEXTON SUMMIT  CLEAR     54  47  77 NW8       30.07R                  
MEDFORD        CLEAR     74  43  32 NW12      29.96R                  
$$

ORZ014>016-041-310500-
COLUMBIA GORGE

  
CITY           SKY/WX    TMP DP  RH WIND       PRES   REMARKS
TROUTDALE      CLEAR     64  54  69 CALM      29.99R                  
THE DALLES     CLEAR     69  49  48 NW13      29.93R                  
$$

ORZ029>031-041-044-049-050-061>064-502-503-505>511-310500-
EASTERN OREGON

  
CITY           SKY/WX    TMP DP  RH WIND       PRES   REMARKS
REDMOND        CLEAR     66  38  35 NW6       29.99R                  
BEND           CLEAR     63  39  42 CALM      30.00R                  
PRINEVILLE     CLEAR     66  39  37 W7        29.99R                  
KLAMATH FALLS  PTCLDY    62  39  42 W7        30.02R                  
LAKEVIEW       CLEAR     57  25  28 SE5       30.08R                  
HERMISTON      CLEAR     70  44  39 S13       29.89R                  
PENDLETON      CLEAR     68  41  37 W15       29.93R                  
JOHN DAY       CLEAR     70  28  20 E6        29.98R                  
MEACHAM        CLEAR     54  40  59 CALM      30.04R                  
LA GRANDE      CLEAR     63  36  36 NW7       29.96S                  
BAKER CITY     CLEAR     60  41  49 SW8       29.99R                  
BURNS          PTCLDY    58  22  24 W7        30.01R                  
ROME             N/A     74  18  12 NE9       29.98R                  
ONTARIO        CLEAR     73  36  25 NW10      29.88R                  
$$
  

Return to Home page


Western Regional Climate Center, wrcc@dri.edu